DW2465 Weather Reports


time (UTC)temp
F
wind
direction
speed
knots
gust
knots
rain 1hr
in
rain 24hr
in
rain mn
in
humidity
%
barometer
mb
20260831120012 70 229 0.0 0.0 0.00 0.00 0.00 95 1006.0
20260831114511 70 229 0.0 0.0 0.00 0.00 0.00 95 1005.7
20260831113009 70 228 0.0 0.0 0.00 0.00 0.00 95 1005.8
20260831111507 70 221 0.0 0.0 0.00 0.00 0.00 94 1005.7
20260831110005 70 221 0.0 0.0 0.00 0.00 0.00 94 1005.2
20260831104512 70 220 0.0 0.0 0.00 0.00 0.00 94 1005.1
20260831103001 71 223 0.0 0.0 0.00 0.00 0.00 94 1005.1
20260831101602 71 213 0.0 0.0 0.00 0.00 0.00 94 1005.2
20260831100119 71 194 0.0 0.0 0.00 0.00 0.00 94 1005.3
20260831094559 71 204 0.0 0.0 0.00 0.00 0.00 94 1005.1
20260831093056 71 219 0.0 0.0 0.00 0.00 0.00 93 1005.0
20260831091600 71 202 0.0 0.0 0.00 0.00 0.00 93 1005.0
20260831090054 71 215 0.0 0.0 0.00 0.00 0.00 93 1005.0
20260831084631 71 171 0.0 0.0 0.00 0.00 0.00 93 1005.0
20260831083053 71 192 0.0 0.0 0.00 0.00 0.00 93 1004.9
20260831081549 72 214 0.0 0.0 0.00 0.00 0.00 92 1005.0
20260831080057 72 201 0.0 0.0 0.00 0.00 0.00 92 1004.8
20260831074558 72 178 0.0 0.0 0.00 0.00 0.00 92 1004.7
20260831073044 72 180 0.0 0.0 0.00 0.00 0.00 91 1004.8
20260831071549 72 186 0.0 0.0 0.00 0.00 0.00 91 1004.8
20260831070041 72 109 0.0 0.0 0.00 0.00 0.00 91 1004.9
20260831064540 72 148 0.0 0.0 0.00 0.00 0.00 91 1005.0
20260831063013 72 146 0.0 0.0 0.00 0.00 0.00 90 1005.0
20260831061506 73 132 0.0 0.0 0.00 0.00 0.00 90 1005.3
20260831060004 73 154 0.0 0.0 0.00 0.00 0.00 90 1005.4
20260831054501 73 131 0.0 0.0 0.00 0.00 0.00 90 1005.6
20260831053119 73 123 0.0 0.0 0.00 0.00 0.00 90 1005.6
20260831051557 73 134 0.0 0.0 0.00 0.00 0.00 89 1005.6
20260831050109 73 127 0.0 0.0 0.00 0.00 0.00 88 1006.1
20260831044524 73 147 0.0 0.0 0.00 0.00 0.00 88 1006.3
20260831043034 74 131 0.0 0.0 0.00 0.00 0.00 87 1006.4
20260831041521 74 163 0.0 0.0 0.00 0.00 0.00 87 1006.5
20260831040021 74 144 0.0 0.0 0.00 0.00 0.00 86 1006.3
20260831034521 74 144 0.0 0.0 0.00 0.00 0.00 85 1006.2
20260831033021 75 155 0.0 0.0 0.00 0.00 0.00 84 1006.3
20260831031517 75 173 0.0 0.0 0.00 0.00 0.00 83 1006.2
20260831030016 76 140 0.0 0.0 0.00 0.00 0.00 82 1006.2
20260831024523 76 188 0.0 0.0 0.00 0.00 0.00 81 1005.9
20260831023015 77 126 0.0 0.0 0.00 0.00 0.00 80 1005.8
20260831021513 77 161 0.0 0.0 0.00 0.00 0.00 78 1006.0
20260831020014 78 129 0.0 0.0 0.00 0.00 0.00 77 1005.9
20260831014511 79 133 0.0 0.0 0.00 0.00 0.00 75 1005.9
20260831013022 79 161 0.0 0.0 0.00 0.00 0.00 74 1005.9
20260831011516 80 159 0.0 0.0 0.00 0.00 0.00 74 1005.7
20260831010013 81 144 0.0 0.0 0.00 0.00 0.00 73 1005.7
20260831004510 81 151 0.0 0.0 0.00 0.00 0.00 71 1005.4
20260831003010 82 159 0.0 0.0 0.00 0.00 0.00 70 1005.5
20260831001512 83 140 0.0 0.0 0.00 0.00 0.00 69 1005.3
20260831000003 83 148 0.0 0.0 0.00 0.00 0.00 71 1005.2
20260830234501 83 127 0.0 0.0 0.00 0.00 0.00 70 1005.1
20260830233002 84 124 0.0 0.0 0.00 0.00 0.00 72 1004.8
20260830231605 84 103 0.0 0.0 0.00 0.00 0.00 72 1005.0
20260830230057 83 77 0.0 0.0 0.00 0.00 0.00 72 1004.9
20260830224607 83 105 0.0 0.0 0.00 0.00 0.00 71 1005.1
20260830223056 83 71 0.0 0.0 0.00 0.00 0.00 72 1005.0
20260830221524 83 97 0.0 0.0 0.00 0.00 0.00 72 1005.0
20260830220022 82 92 0.0 0.0 0.00 0.00 0.00 73 1005.1
20260830214551 82 123 0.0 0.0 0.00 0.00 0.00 73 1005.1
20260830213049 82 103 0.0 0.0 0.00 0.00 0.00 72 1005.4
20260830211546 82 76 0.0 0.0 0.00 0.00 0.00 73 1005.4
20260830210056 82 117 0.0 0.0 0.00 0.00 0.00 73 1005.7
20260830204547 82 130 0.0 0.0 0.00 0.00 0.00 72 1005.7
20260830203043 83 117 0.0 0.0 0.00 0.00 0.00 70 1006.0
20260830201539 82 119 0.0 0.0 0.00 0.00 0.00 72 1006.0
20260830200048 82 88 0.0 0.0 0.00 0.00 0.00 71 1006.0
20260830194543 82 49 0.0 0.0 0.00 0.00 0.00 72 1005.9
20260830193032 81 80 0.0 0.0 0.00 0.00 0.00 73 1006.2
20260830191529 81 345 0.0 0.0 0.00 0.00 0.00 72 1006.0
20260830190032 81 355 0.0 0.0 0.00 0.00 0.00 75 1006.2
20260830184524 79 84 0.0 0.0 0.00 0.00 0.00 77 1006.7
20260830183022 79 103 0.0 0.0 0.00 0.00 0.00 76 1007.1
20260830181517 78 86 0.0 0.0 0.00 0.00 0.00 77 1007.0
20260830180017 76 80 0.0 0.0 0.00 0.00 0.00 81 1006.9
20260830174510 76 92 0.0 0.0 0.00 0.00 0.00 82 1007.0
20260830173009 75 98 0.0 0.0 0.00 0.00 0.00 84 1007.3
20260830171505 75 78 0.0 0.0 0.00 0.00 0.00 83 1007.6
20260830170010 75 13 0.0 0.0 0.00 0.00 0.00 82 1007.5
20260830164509 75 141 0.0 0.0 0.00 0.00 0.00 83 1007.6
20260830163002 75 75 0.0 0.0 0.00 0.00 0.00 83 1007.3
20260830161624 74 88 0.0 0.0 0.00 0.00 0.00 84 1006.9
20260830160054 73 62 0.0 0.0 0.00 0.00 0.00 86 1006.7
20260830154553 72 68 0.0 0.0 0.00 0.00 0.00 87 1006.7
20260830153053 72 69 0.0 0.0 0.00 0.00 0.00 86 1006.9
20260830151551 72 57 0.0 0.0 0.00 0.00 0.00 86 1006.9
20260830150106 72 107 0.0 0.0 0.00 0.00 0.00 86 1007.0
20260830144545 71 116 0.0 0.0 0.00 0.00 0.00 87 1007.0
20260830143042 70 44 0.0 0.0 0.00 0.00 0.00 89 1006.6
20260830141543 70 106 0.0 0.0 0.00 0.00 0.00 90 1006.8
20260830140011 70 66 0.0 0.0 0.00 0.00 0.00 90 1007.1
20260830134514 69 88 0.0 0.0 0.00 0.00 0.00 91 1007.4
20260830133009 69 50 0.0 0.0 0.00 0.00 0.00 92 1007.4
20260830131511 68 74 0.0 0.0 0.00 0.00 0.00 93 1007.1
20260830130007 68 61 0.0 0.0 0.00 0.00 0.00 93 1007.0
20260830124506 68 72 0.0 0.0 0.00 0.00 0.00 93 1006.8
20260830123004 68 96 0.0 0.0 0.00 0.00 0.00 93 1007.0
20260830121503 68 45 0.0 0.0 0.00 0.00 0.00 93 1006.6